Вернуться в каталог

STARLINK-37715

АктивенСвязьSSO
NORAD 69126·PAYLOAD·🇺🇸 United States

Запущен May 20, 2026 с Vandenberg Space Force Base

Loading…

Ближайшие Пролёты (ближайшие 24 часа)

TLE

СвежийSource: CelesTrak SupGP

Эпоха: Sep 15, 2026, 03:14 UTC

1 69126C 26110C   26258.13520833 -.00045143  00000+0 -14011-2 0  2587
2 69126  97.2855  93.2064 0001698  89.8938 129.7816 15.33467591    14

Отслеживайте STARLINK-37715 в реальном времени с AllMySat

Download on the App Store